User: anonymous
Location: Unspecified
(0.0000°N, 0.0000°E)
Time: 06:19:10
(UTC+00:00)
Language:

Transit 2A Rocket - Orbit

View from above orbital plane
View from above orbital plane
View from above satellite
View from above satellite

Ground track
Ground track

The orbit data is extracted from the following two-line orbital elements,

1 00047U 60007C   14264.79451419  .00000183  00000-0  67020-4 0  3154
2 00047 066.6685 356.5841 0226055 034.3480 327.2004 14.41214913833006
Epoch (UTC): 21 September 2014 19:04:06
Eccentricity: 0.0226055
inclination: 66.6685°
perigee height: 593 km
apogee height: 916 km
right ascension of ascending node: 356.5841°
argument of perigee: 34.3480°
revolutions per day: 14.41214913
mean anomaly at epoch: 327.2004°
orbit number at epoch: 83300

The dashed part of the orbit path shows where the satellite is in the earth's shadow,  

DLR